Flag for Madagascar Weather past 2 weeks in Antananarivo, Madagascar

Now
55 °F

Passing clouds.


Feels Like: 55 °F
Forecast: 55 / 78 °F
Wind: 1 mph from North

Location: Antananarivo / Ivato

Current Time: Aug 23, 2014 at 12:45:45 AM

Latest Report: Aug 23, 2014 at 12:00 AM


Visibility: N/A

Pressure: 30.12 "Hg

Humidity: 100%

Dew point: 55 °F

Location of AntananarivoLocation

Historic Weather in Antananarivo — Graph

°F

Antananarivo temperature yesterday

Maximum temperature yesterday: 77 °F (at 2:00 PM)
Minimum temperature yesterday: 52 °F (at 5:30 AM)
Average temperature yesterday: 65 °F

Past Weeks' High & Low Weather Summary

 TemperatureHumidityPressure
High77 °F (Aug 22, 2:00 PM)100% (Aug 7, 11:00 PM)30.39 "Hg (Aug 7, 11:00 PM)
Low45 °F (Aug 19, 5:30 AM)42% (Aug 22, 4:30 PM)30.04 "Hg (Aug 22, 3:00 PM)
Average59 °F88%30.30 "Hg
* Reported Aug 7 11:00 PM — Aug 22 11:00 PM, Antananarivo, Weather by CustomWeather, © 2014

Note: Actual official high and low records may vary slightly from our data, if they occured in-between our weather recording intervals... More about our weather records

Advertising

Antananarivo weather history for previous 24 hours

 ConditionsComfort  
Time TempWeatherWind HumidityBarometerVisibility
11:00 PM
Aug 22
57 °FPassing clouds.1 mph94%30.12 "HgN/A
10:00 PM59 °FPassing clouds.No wind88%30.12 "HgN/A
9:30 PM61 °FPassing clouds.2 mph83%30.12 "HgN/A
9:00 PM61 °FPassing clouds.3 mph77%30.09 "HgN/A
8:30 PM63 °FPassing clouds.2 mph64%30.09 "HgN/A
8:00 PM64 °FPassing clouds.3 mph64%30.09 "HgN/A
7:30 PM64 °FPassing clouds.5 mph60%30.09 "HgN/A
7:00 PM64 °FPassing clouds.5 mph64%30.09 "HgN/A
6:30 PM70 °FPassing clouds.6 mph53%30.07 "HgN/A
6:00 PM72 °FPassing clouds.7 mph50%30.07 "HgN/A
5:30 PM73 °FPassing clouds.6 mph47%30.07 "HgN/A
5:00 PM77 °FPassing clouds.3 mph42%30.07 "HgN/A
4:30 PM77 °FPassing clouds.6 mph42%30.04 "HgN/A
4:00 PM77 °FPassing clouds.3 mph44%30.04 "HgN/A
3:30 PM77 °FScattered clouds.5 mph44%30.04 "HgN/A
3:00 PM77 °FScattered clouds.2 mph44%30.04 "HgN/A
2:30 PM77 °FScattered clouds.6 mph47%30.07 "HgN/A
2:00 PM77 °FScattered clouds.2 mph47%30.07 "HgN/A
1:30 PM75 °FScattered clouds.6 mph44%30.09 "HgN/A
1:00 PM75 °FScattered clouds.3 mph44%30.09 "HgN/A
12:30 PM75 °FScattered clouds.5 mph50%30.12 "HgN/A
12:00 PM73 °FScattered clouds.6 mph57%30.12 "HgN/A
11:30 AM72 °FPassing clouds.5 mph61%30.15 "HgN/A
11:00 AM72 °FPassing clouds.3 mph65%30.15 "HgN/A
10:30 AM68 °FScattered clouds.2 mph73%30.18 "HgN/A
10:00 AM70 °FPassing clouds.6 mph69%30.18 "HgN/A
9:30 AM66 °FPassing clouds.5 mph73%30.18 "HgN/A
9:00 AM64 °FPassing clouds.3 mph78%30.18 "HgN/A
8:30 AM63 °FScattered clouds.2 mph88%30.18 "HgN/A
8:00 AM61 °FPassing clouds.5 mph94%30.18 "HgN/A
7:30 AM57 °FPassing clouds.5 mph100%30.18 "HgN/A
7:00 AM55 °FPassing clouds.6 mph100%30.15 "HgN/A
6:30 AM52 °FPassing clouds.3 mph100%30.15 "HgN/A
6:00 AM52 °FPassing clouds.5 mph100%30.15 "HgN/A
5:30 AM52 °FPassing clouds.3 mph100%30.15 "HgN/A
5:00 AM54 °FPassing clouds.1 mph100%30.12 "HgN/A
4:30 AM54 °FPassing clouds.3 mph100%30.12 "HgN/A
4:00 AM57 °FPassing clouds.2 mph100%30.12 "HgN/A
3:30 AM57 °FPassing clouds.No wind100%30.12 "HgN/A
3:00 AM57 °FPassing clouds.1 mph100%30.15 "HgN/A
2:30 AM57 °FPassing clouds.1 mph100%30.15 "HgN/A
2:00 AM57 °FPassing clouds.6 mph100%30.15 "HgN/A
1:30 AM57 °FPassing clouds.5 mph100%30.15 "HgN/A
1:00 AM57 °FPassing clouds.6 mph100%30.18 "HgN/A
12:30 AM55 °FPassing clouds.5 mph100%30.18 "HgN/A
12:00 AM55 °FPassing clouds.6 mph100%30.18 "HgN/A
Weather by CustomWeather, © 2014

See weather overviewHow to use our weather pages